Terminal Aerodrome Forecast
Issued by NWS

Home | Current Version | Previous Version | Text Only | Print | Product List | Glossary On
Versions: 1 2 3 4 5 6 7 8 9 10 11 12 13
107
FTUS42 TJSJ 271140
TAFJPS
TAF
TJPS 271140Z 2712/2812 05005KT P6SM VCSH FEW030
     FM271300 13010KT P6SM FEW030 BKN080
     FM272330 08004KT P6SM FEW030 SCT060
      AMD NOT SKED TIL 280300=

USA.gov is the U.S. government's official web portal to all federal, state and local government web resources and services.